Location: Goudex
(43.3760°N, 0.9543°E)
Time: 09:03:37
(UTC+00:00)

MSX - Pass Details

Date: 20 November 2019
Orbit: 895 x 905 km, 98.8° (Epoch: 15 December)

Event Time Altitude Azimuth Distance (km) Brightness Sun altitude
Rises 04:47:40 0° 7° (N) 3,528 6.9 -23.0°
Reaches altitude 10° 04:50:13 10° 360° (N) 2,585 6.2 -22.5°
Enters shadow 04:54:59 39° 306° (NW) 1,331 4.3 -21.7°
